Location: Brunembert
(50.7122°N, 1.8935°E)
Time: 10:50:44
(UTC+00:00)

Cosmos 1633 - Pass Details

Date: 22 April 2021
Orbit: 461 x 478 km, 82.5° (Epoch: 05 May)

Event Time Altitude Azimuth Distance (km) Brightness Sun altitude
Rises 20:34:35 0° 345° (NNW) 2,538 7.2 -13.7°
Reaches altitude 10° 20:36:44 10° 341° (NNW) 1,651 6.2 -14.0°
Maximum altitude 20:40:14 51° 265° (W) 604 3.3 -14.4°
Enters shadow 20:43:22 12° 190° (S) 1,497 4.7 -14.8°
